Wetterdaten: Sonntag, 03.05.2015
Datum Zeit Auen-Temp. Temp gefhlt Luftfeuchte Luftdruck Regen Wind Richtung Richtung Taupunkt Windben
03.05.2015 00:00 9,1 C 9,0 C 91 % 1011,3 hPa 0,0 mm 0,0 km/h (0 Bft) S-SO 157 7,7 C 0,0 km/h (0 Bft)
03.05.2015 00:05 9,2 C 9,1 C 91 % 1011,3 hPa 0,0 mm 0,0 km/h (0 Bft) S-SO 157 7,8 C 0,0 km/h (0 Bft)
03.05.2015 00:10 9,1 C 9,1 C 91 % 1011,3 hPa 0,0 mm 0,0 km/h (0 Bft) SW 225 7,7 C 0,0 km/h (0 Bft)
03.05.2015 00:15 9,2 C 9,1 C 91 % 1011,3 hPa 0,0 mm 0,0 km/h (0 Bft) SW 225 7,8 C 0,0 km/h (0 Bft)
03.05.2015 00:20 9,2 C 9,1 C 91 % 1011,1 hPa 0,0 mm 0,0 km/h (0 Bft) S-SO 157 7,8 C 0,0 km/h (0 Bft)
03.05.2015 00:25 9,2 C 9,1 C 91 % 1011,1 hPa 0,0 mm 0,3 km/h (0 Bft) SO 135 7,8 C 0,0 km/h (0 Bft)
03.05.2015 00:30 9,2 C 9,1 C 91 % 1011,1 hPa 0,0 mm 0,3 km/h (0 Bft) S-SO 157 7,8 C 0,0 km/h (0 Bft)
03.05.2015 00:35 9,2 C 9,1 C 91 % 1011,1 hPa 0,0 mm 0,0 km/h (0 Bft) W 270 7,8 C 0,0 km/h (0 Bft)
03.05.2015 00:40 9,2 C 9,1 C 91 % 1011,3 hPa 0,0 mm 0,5 km/h (0 Bft) SW 225 7,8 C 5,7 km/h (1 Bft)
03.05.2015 00:45 9,2 C 9,1 C 91 % 1011,3 hPa 0,0 mm 2,6 km/h (1 Bft) S-SW 202 7,8 C 8,8 km/h (2 Bft)
03.05.2015 00:50 9,2 C 9,1 C 91 % 1011,3 hPa 0,0 mm 4,4 km/h (1 Bft) SW 225 7,8 C 2,6 km/h (1 Bft)
03.05.2015 00:55 9,2 C 9,1 C 91 % 1011,3 hPa 0,0 mm 4,4 km/h (1 Bft) S 180 7,8 C 9,3 km/h (2 Bft)
03.05.2015 01:00 9,2 C 9,1 C 91 % 1011,4 hPa 0,0 mm 3,6 km/h (1 Bft) S 180 7,8 C 3,9 km/h (1 Bft)
03.05.2015 01:05 9,2 C 9,1 C 91 % 1011,4 hPa 0,0 mm 3,9 km/h (1 Bft) SW 225 7,8 C 12,2 km/h (2 Bft)
03.05.2015 01:10 9,2 C 9,1 C 91 % 1011,4 hPa 0,0 mm 3,4 km/h (1 Bft) SW 225 7,8 C 4,7 km/h (1 Bft)
03.05.2015 01:15 9,3 C 9,2 C 91 % 1011,4 hPa 0,0 mm 4,4 km/h (1 Bft) S 180 7,9 C 7,8 km/h (2 Bft)
03.05.2015 01:20 9,3 C 9,2 C 91 % 1011,2 hPa 0,0 mm 4,9 km/h (1 Bft) S-SW 202 7,9 C 3,9 km/h (1 Bft)
03.05.2015 01:25 9,3 C 9,2 C 91 % 1011,2 hPa 0,7 mm 3,1 km/h (1 Bft) S 180 7,9 C 7,0 km/h (2 Bft)
03.05.2015 01:30 9,2 C 9,1 C 91 % 1011,2 hPa 0,0 mm 2,6 km/h (1 Bft) SW 225 7,8 C 4,4 km/h (1 Bft)
03.05.2015 01:35 9,2 C 9,1 C 91 % 1011,2 hPa 0,0 mm 2,8 km/h (1 Bft) SW 225 7,8 C 4,1 km/h (1 Bft)
03.05.2015 01:40 9,2 C 9,1 C 91 % 1011,1 hPa 0,0 mm 3,4 km/h (1 Bft) SW 225 7,8 C 7,0 km/h (2 Bft)
03.05.2015 01:45 9,2 C 9,1 C 91 % 1011,1 hPa 0,0 mm 4,4 km/h (1 Bft) S 180 7,8 C 6,0 km/h (2 Bft)
03.05.2015 01:50 9,2 C 9,1 C 91 % 1011,1 hPa 0,0 mm 3,4 km/h (1 Bft) W-SW 247 7,8 C 0,0 km/h (0 Bft)
03.05.2015 01:55 9,1 C 9,0 C 91 % 1011,1 hPa 0,0 mm 2,1 km/h (1 Bft) S-SO 157 7,7 C 0,0 km/h (0 Bft)
03.05.2015 02:00 9,1 C 9,0 C 91 % 1010,8 hPa 0,0 mm 0,0 km/h (0 Bft) S 180 7,7 C 0,0 km/h (0 Bft)
03.05.2015 02:05 9,0 C 8,9 C 91 % 1010,8 hPa 0,0 mm 0,0 km/h (0 Bft) S 180 7,6 C 0,0 km/h (0 Bft)
03.05.2015 02:10 9,0 C 8,9 C 91 % 1010,8 hPa 0,0 mm 0,3 km/h (0 Bft) SW 225 7,6 C 0,0 km/h (0 Bft)
03.05.2015 02:15 9,0 C 8,9 C 91 % 1010,8 hPa 0,0 mm 0,3 km/h (0 Bft) O-SO 112 7,6 C 0,0 km/h (0 Bft)
03.05.2015 02:20 9,0 C 8,9 C 91 % 1010,6 hPa 0,0 mm 0,0 km/h (0 Bft) SO 135 7,6 C 0,0 km/h (0 Bft)
03.05.2015 02:25 8,9 C 8,8 C 91 % 1010,6 hPa 0,0 mm 0,0 km/h (0 Bft) SO 135 7,5 C 0,0 km/h (0 Bft)
03.05.2015 02:30 8,9 C 8,8 C 91 % 1010,6 hPa 0,0 mm 0,0 km/h (0 Bft) O-SO 112 7,5 C 0,0 km/h (0 Bft)
03.05.2015 02:35 8,9 C 8,8 C 91 % 1010,6 hPa 0,0 mm 0,0 km/h (0 Bft) SO 135 7,5 C 0,0 km/h (0 Bft)
03.05.2015 02:40 8,9 C 8,8 C 91 % 1010,2 hPa 0,0 mm 0,0 km/h (0 Bft) SO 135 7,5 C 0,0 km/h (0 Bft)
03.05.2015 02:45 8,8 C 8,7 C 91 % 1010,2 hPa 0,7 mm 0,0 km/h (0 Bft) O-SO 112 7,4 C 0,0 km/h (0 Bft)
03.05.2015 02:50 8,8 C 8,7 C 91 % 1010,2 hPa 0,0 mm 0,0 km/h (0 Bft) O-SO 112 7,4 C 0,0 km/h (0 Bft)
03.05.2015 02:55 8,8 C 8,7 C 91 % 1010,2 hPa 0,0 mm 0,0 km/h (0 Bft) O-NO 67 7,4 C 0,0 km/h (0 Bft)
03.05.2015 03:00 8,9 C 8,8 C 92 % 1009,9 hPa 0,0 mm 0,3 km/h (0 Bft) O-NO 67 7,7 C 0,0 km/h (0 Bft)
03.05.2015 03:05 8,8 C 8,8 C 88 % 1009,9 hPa 0,0 mm 0,3 km/h (0 Bft) O-SO 112 6,9 C 0,0 km/h (0 Bft)
03.05.2015 03:10 8,8 C 8,8 C 88 % 1009,9 hPa 0,0 mm 0,3 km/h (0 Bft) NO 45 6,9 C 3,9 km/h (1 Bft)
03.05.2015 03:15 8,9 C 8,8 C 92 % 1009,9 hPa 0,0 mm 1,3 km/h (1 Bft) O 90 7,7 C 4,4 km/h (1 Bft)
03.05.2015 03:20 8,9 C 8,8 C 92 % 1009,5 hPa 0,0 mm 1,6 km/h (1 Bft) O 90 7,7 C 0,0 km/h (0 Bft)
03.05.2015 03:25 8,9 C 8,8 C 92 % 1009,5 hPa 0,0 mm 0,8 km/h (0 Bft) O-NO 67 7,7 C 3,1 km/h (1 Bft)
03.05.2015 03:30 8,9 C 8,8 C 92 % 1009,5 hPa 0,0 mm 1,8 km/h (1 Bft) O-NO 67 7,7 C 0,0 km/h (0 Bft)
03.05.2015 03:35 8,9 C 8,9 C 88 % 1009,5 hPa 0,0 mm 2,8 km/h (1 Bft) O-NO 67 7,0 C 6,2 km/h (2 Bft)
03.05.2015 03:40 9,0 C 8,9 C 92 % 1008,9 hPa 0,0 mm 2,1 km/h (1 Bft) O 90 7,8 C 0,0 km/h (0 Bft)
03.05.2015 03:45 8,9 C 8,8 C 92 % 1008,9 hPa 0,7 mm 1,0 km/h (0 Bft) S 180 7,7 C 4,7 km/h (1 Bft)
03.05.2015 03:50 9,0 C 8,9 C 92 % 1008,9 hPa 0,0 mm 1,6 km/h (1 Bft) O-SO 112 7,8 C 2,8 km/h (1 Bft)
03.05.2015 03:55 9,0 C 8,9 C 92 % 1008,9 hPa 0,0 mm 1,8 km/h (1 Bft) NO 45 7,8 C 0,0 km/h (0 Bft)
03.05.2015 04:00 9,0 C 8,9 C 92 % 1008,9 hPa 0,0 mm 2,3 km/h (1 Bft) O-NO 67 7,8 C 3,9 km/h (1 Bft)
03.05.2015 04:05 9,0 C 8,9 C 92 % 1008,9 hPa 0,0 mm 2,6 km/h (1 Bft) O-NO 67 7,8 C 0,0 km/h (0 Bft)
03.05.2015 04:10 9,0 C 8,9 C 92 % 1008,9 hPa 0,0 mm 1,6 km/h (1 Bft) O-NO 67 7,8 C 4,1 km/h (1 Bft)
03.05.2015 04:15 9,0 C 8,9 C 92 % 1008,9 hPa 0,0 mm 2,6 km/h (1 Bft) O-NO 67 7,8 C 4,4 km/h (1 Bft)
03.05.2015 04:20 9,0 C 8,9 C 92 % 1008,6 hPa 0,7 mm 2,6 km/h (1 Bft) O-NO 67 7,8 C 0,0 km/h (0 Bft)
03.05.2015 04:25 9,0 C 8,9 C 92 % 1008,6 hPa 0,0 mm 2,1 km/h (1 Bft) NO 45 7,8 C 6,2 km/h (2 Bft)
03.05.2015 04:30 9,0 C 8,9 C 92 % 1008,6 hPa 0,0 mm 2,6 km/h (1 Bft) O-NO 67 7,8 C 3,4 km/h (1 Bft)
03.05.2015 04:35 9,0 C 8,9 C 92 % 1008,6 hPa 0,0 mm 2,8 km/h (1 Bft) NO 45 7,8 C 0,0 km/h (0 Bft)
03.05.2015 04:40 9,0 C 8,9 C 92 % 1008,4 hPa 0,7 mm 1,3 km/h (1 Bft) O-NO 67 7,8 C 0,0 km/h (0 Bft)
03.05.2015 04:45 9,0 C 8,9 C 92 % 1008,4 hPa 0,0 mm 1,6 km/h (1 Bft) O-NO 67 7,8 C 0,0 km/h (0 Bft)
03.05.2015 04:50 9,0 C 8,9 C 92 % 1008,4 hPa 0,0 mm 1,6 km/h (1 Bft) O-SO 112 7,8 C 0,0 km/h (0 Bft)
03.05.2015 04:55 9,0 C 8,9 C 92 % 1008,4 hPa 0,7 mm 1,0 km/h (0 Bft) O-NO 67 7,8 C 0,0 km/h (0 Bft)
03.05.2015 05:00 9,0 C 8,9 C 92 % 1008,3 hPa 0,0 mm 0,5 km/h (0 Bft) O-NO 67 7,8 C 0,0 km/h (0 Bft)
03.05.2015 05:05 9,0 C 8,9 C 92 % 1008,3 hPa 0,0 mm 0,3 km/h (0 Bft) O-NO 67 7,8 C 3,6 km/h (1 Bft)
03.05.2015 05:10 9,0 C 8,9 C 92 % 1008,3 hPa 0,0 mm 0,8 km/h (0 Bft) O-SO 112 7,8 C 0,0 km/h (0 Bft)
03.05.2015 05:15 8,9 C 8,8 C 92 % 1008,3 hPa 0,7 mm 0,8 km/h (0 Bft) O 90 7,7 C 0,0 km/h (0 Bft)
03.05.2015 05:20 8,9 C 8,8 C 92 % 1007,9 hPa 0,0 mm 0,0 km/h (0 Bft) O-NO 67 7,7 C 0,0 km/h (0 Bft)
03.05.2015 05:25 8,9 C 8,8 C 92 % 1007,9 hPa 0,0 mm 0,0 km/h (0 Bft) W-SW 247 7,7 C 0,0 km/h (0 Bft)
03.05.2015 05:30 8,9 C 8,8 C 92 % 1007,9 hPa 0,0 mm 0,3 km/h (0 Bft) N-NO 22 7,7 C 4,1 km/h (1 Bft)
03.05.2015 05:35 9,0 C 8,9 C 92 % 1007,9 hPa 0,0 mm 0,5 km/h (0 Bft) N-NO 22 7,8 C 2,6 km/h (1 Bft)
03.05.2015 05:40 9,0 C 8,9 C 92 % 1007,9 hPa 0,7 mm 2,1 km/h (1 Bft) N-NO 22 7,8 C 0,0 km/h (0 Bft)
03.05.2015 05:45 9,0 C 9,0 C 92 % 1007,9 hPa 0,0 mm 1,6 km/h (1 Bft) SO 135 7,8 C 0,0 km/h (0 Bft)
03.05.2015 05:50 9,0 C 9,0 C 92 % 1007,9 hPa 0,0 mm 0,3 km/h (0 Bft) N-NO 22 7,8 C 0,0 km/h (0 Bft)
03.05.2015 05:55 9,0 C 9,0 C 92 % 1007,9 hPa 0,7 mm 0,3 km/h (0 Bft) NW 315 7,8 C 0,0 km/h (0 Bft)
03.05.2015 06:00 9,0 C 9,0 C 92 % 1007,8 hPa 0,0 mm 0,3 km/h (0 Bft) S-SW 202 7,8 C 0,0 km/h (0 Bft)
03.05.2015 06:05 9,0 C 9,0 C 92 % 1007,8 hPa 0,0 mm 0,0 km/h (0 Bft) W-NW 292 7,8 C 0,0 km/h (0 Bft)
03.05.2015 06:10 9,0 C 9,0 C 92 % 1007,8 hPa 0,0 mm 0,0 km/h (0 Bft) W 270 7,8 C 0,0 km/h (0 Bft)
03.05.2015 06:15 9,0 C 9,0 C 92 % 1007,8 hPa 0,7 mm 0,0 km/h (0 Bft) W 270 7,8 C 0,0 km/h (0 Bft)
03.05.2015 06:20 9,0 C 9,0 C 92 % 1008,1 hPa 0,0 mm 0,5 km/h (0 Bft) W 270 7,8 C 0,0 km/h (0 Bft)
03.05.2015 06:25 9,0 C 9,0 C 92 % 1008,1 hPa 0,0 mm 0,5 km/h (0 Bft) W 270 7,8 C 0,0 km/h (0 Bft)
03.05.2015 06:30 9,0 C 9,0 C 92 % 1008,1 hPa 0,7 mm 0,0 km/h (0 Bft) W-SW 247 7,8 C 0,0 km/h (0 Bft)
03.05.2015 06:35 9,0 C 9,0 C 92 % 1008,1 hPa 0,0 mm 0,0 km/h (0 Bft) W-SW 247 7,8 C 0,0 km/h (0 Bft)
03.05.2015 06:40 9,0 C 9,0 C 92 % 1008,1 hPa 0,0 mm 0,3 km/h (0 Bft) SW 225 7,8 C 3,1 km/h (1 Bft)
03.05.2015 06:45 9,0 C 9,0 C 92 % 1008,1 hPa 0,7 mm 1,3 km/h (1 Bft) W-NW 292 7,8 C 3,6 km/h (1 Bft)
03.05.2015 06:50 9,1 C 9,1 C 92 % 1008,1 hPa 0,0 mm 2,1 km/h (1 Bft) NW 315 7,9 C 0,0 km/h (0 Bft)
03.05.2015 06:55 9,1 C 9,1 C 92 % 1008,1 hPa 0,0 mm 1,3 km/h (1 Bft) W-SW 247 7,9 C 0,0 km/h (0 Bft)
03.05.2015 07:00 9,1 C 9,1 C 92 % 1008,1 hPa 0,0 mm 1,0 km/h (0 Bft) W-SW 247 7,9 C 4,7 km/h (1 Bft)
03.05.2015 07:05 9,1 C 9,1 C 92 % 1008,1 hPa 0,0 mm 2,3 km/h (1 Bft) SW 225 7,9 C 4,9 km/h (1 Bft)
03.05.2015 07:10 9,1 C 9,1 C 88 % 1008,1 hPa 0,7 mm 2,1 km/h (1 Bft) NW 315 7,2 C 0,0 km/h (0 Bft)
03.05.2015 07:15 9,2 C 9,1 C 92 % 1008,1 hPa 0,0 mm 0,8 km/h (0 Bft) N-NO 22 8,0 C 0,0 km/h (0 Bft)
03.05.2015 07:20 9,2 C 9,2 C 92 % 1008,2 hPa 0,0 mm 0,0 km/h (0 Bft) O-NO 67 8,0 C 0,0 km/h (0 Bft)
03.05.2015 07:25 9,2 C 9,3 C 88 % 1008,2 hPa 0,0 mm 0,0 km/h (0 Bft) N-NW 337 7,3 C 0,0 km/h (0 Bft)
03.05.2015 07:30 9,2 C 9,3 C 88 % 1008,2 hPa 0,0 mm 0,3 km/h (0 Bft) N-NW 337 7,3 C 0,0 km/h (0 Bft)
03.05.2015 07:35 9,3 C 9,3 C 92 % 1008,2 hPa 0,7 mm 0,3 km/h (0 Bft) NW 315 8,1 C 0,0 km/h (0 Bft)
03.05.2015 07:40 9,3 C 9,4 C 88 % 1008,6 hPa 0,0 mm 0,0 km/h (0 Bft) SW 225 7,4 C 0,0 km/h (0 Bft)
03.05.2015 07:45 9,3 C 9,4 C 88 % 1008,6 hPa 0,0 mm 0,3 km/h (0 Bft) W-SW 247 7,4 C 2,8 km/h (1 Bft)
03.05.2015 07:50 9,3 C 9,4 C 88 % 1008,6 hPa 0,0 mm 0,3 km/h (0 Bft) NW 315 7,4 C 0,0 km/h (0 Bft)
03.05.2015 07:55 9,4 C 9,5 C 88 % 1008,6 hPa 0,7 mm 0,8 km/h (0 Bft) NW 315 7,5 C 0,0 km/h (0 Bft)
03.05.2015 08:00 9,4 C 9,5 C 88 % 1008,6 hPa 0,0 mm 0,8 km/h (0 Bft) N-NO 22 7,5 C 0,0 km/h (0 Bft)
03.05.2015 08:05 9,5 C 9,7 C 89 % 1008,6 hPa 0,0 mm 0,3 km/h (0 Bft) W 270 7,8 C 0,0 km/h (0 Bft)
03.05.2015 08:10 9,5 C 9,7 C 89 % 1008,6 hPa 0,0 mm 0,0 km/h (0 Bft) NW 315 7,8 C 0,0 km/h (0 Bft)
03.05.2015 08:15 9,5 C 9,8 C 89 % 1008,6 hPa 0,0 mm 0,0 km/h (0 Bft) NW 315 7,8 C 0,0 km/h (0 Bft)
03.05.2015 08:20 9,6 C 9,8 C 89 % 1008,7 hPa 0,0 mm 0,0 km/h (0 Bft) O-NO 67 7,9 C 0,0 km/h (0 Bft)
03.05.2015 08:25 9,6 C 9,9 C 89 % 1008,7 hPa 0,0 mm 0,0 km/h (0 Bft) NW 315 7,9 C 0,0 km/h (0 Bft)
03.05.2015 08:30 9,7 C 9,9 C 89 % 1008,7 hPa 0,0 mm 0,0 km/h (0 Bft) O-NO 67 8,0 C 0,0 km/h (0 Bft)
03.05.2015 08:35 9,7 C 10,0 C 89 % 1008,7 hPa 0,7 mm 0,0 km/h (0 Bft) N-NO 22 8,0 C 0,0 km/h (0 Bft)
03.05.2015 08:40 9,8 C 10,0 C 89 % 1008,8 hPa 0,0 mm 0,0 km/h (0 Bft) N-NO 22 8,1 C 2,8 km/h (1 Bft)
03.05.2015 08:45 9,8 C 10,1 C 89 % 1008,8 hPa 0,0 mm 0,8 km/h (0 Bft) N-NO 22 8,1 C 0,0 km/h (0 Bft)
03.05.2015 08:50 9,9 C 10,1 C 89 % 1008,8 hPa 0,0 mm 0,8 km/h (0 Bft) N-NO 22 8,2 C 0,0 km/h (0 Bft)
03.05.2015 08:55 10,0 C 10,2 C 88 % 1008,8 hPa 0,0 mm 0,0 km/h (0 Bft) O 90 8,1 C 0,0 km/h (0 Bft)
03.05.2015 09:00 10,0 C 10,3 C 88 % 1009,0 hPa 0,0 mm 0,0 km/h (0 Bft) O-SO 112 8,1 C 0,0 km/h (0 Bft)
03.05.2015 09:05 10,1 C 10,4 C 88 % 1009,0 hPa 0,0 mm 0,0 km/h (0 Bft) NW 315 8,2 C 0,0 km/h (0 Bft)
03.05.2015 09:10 10,2 C 10,6 C 88 % 1009,0 hPa 0,0 mm 0,0 km/h (0 Bft) W 270 8,3 C 0,0 km/h (0 Bft)
03.05.2015 09:15 10,4 C 10,7 C 88 % 1009,0 hPa 0,0 mm 0,0 km/h (0 Bft) W 270 8,5 C 0,0 km/h (0 Bft)
03.05.2015 09:20 10,5 C 10,9 C 88 % 1009,2 hPa 0,0 mm 0,3 km/h (0 Bft) N-NW 337 8,6 C 0,0 km/h (0 Bft)
03.05.2015 09:25 10,6 C 11,0 C 88 % 1009,2 hPa 0,7 mm 0,3 km/h (0 Bft) NW 315 8,7 C 0,0 km/h (0 Bft)
03.05.2015 09:30 10,7 C 11,1 C 88 % 1009,2 hPa 0,0 mm 0,3 km/h (0 Bft) W 270 8,8 C 3,1 km/h (1 Bft)
03.05.2015 09:35 10,9 C 11,3 C 88 % 1009,2 hPa 0,0 mm 0,3 km/h (0 Bft) S 180 9,0 C 0,0 km/h (0 Bft)
03.05.2015 09:40 11,1 C 11,7 C 88 % 1009,3 hPa 0,0 mm 0,5 km/h (0 Bft) W-SW 247 9,2 C 0,0 km/h (0 Bft)
03.05.2015 09:45 11,3 C 12,1 C 88 % 1009,3 hPa 0,0 mm 0,3 km/h (0 Bft) N-NO 22 9,4 C 0,0 km/h (0 Bft)
03.05.2015 09:50 11,5 C 12,5 C 88 % 1009,3 hPa 0,0 mm 0,0 km/h (0 Bft) O-SO 112 9,6 C 0,0 km/h (0 Bft)
03.05.2015 09:55 11,9 C 12,7 C 88 % 1009,3 hPa 0,0 mm 0,0 km/h (0 Bft) O-NO 67 10,0 C 0,0 km/h (0 Bft)
03.05.2015 10:00 12,2 C 13,2 C 88 % 1009,1 hPa 0,0 mm 0,3 km/h (0 Bft) NW 315 10,3 C 3,9 km/h (1 Bft)
03.05.2015 10:05 12,6 C 13,4 C 88 % 1009,1 hPa 0,0 mm 0,5 km/h (0 Bft) S-SO 157 10,7 C 0,0 km/h (0 Bft)
03.05.2015 10:10 12,6 C 13,5 C 88 % 1009,1 hPa 0,0 mm 0,5 km/h (0 Bft) O-NO 67 10,7 C 0,0 km/h (0 Bft)
03.05.2015 10:15 12,7 C 13,5 C 88 % 1009,1 hPa 0,0 mm 0,0 km/h (0 Bft) W-SW 247 10,8 C 0,0 km/h (0 Bft)
03.05.2015 10:20 12,9 C 13,7 C 88 % 1009,2 hPa 0,0 mm 0,8 km/h (0 Bft) NW 315 11,0 C 0,0 km/h (0 Bft)
03.05.2015 10:25 13,0 C 14,0 C 88 % 1009,2 hPa 0,0 mm 0,8 km/h (0 Bft) N-NO 22 11,1 C 0,0 km/h (0 Bft)
03.05.2015 10:30 13,2 C 14,1 C 88 % 1009,2 hPa 0,7 mm 0,0 km/h (0 Bft) N-NO 22 11,3 C 0,0 km/h (0 Bft)
03.05.2015 10:35 13,5 C 14,1 C 88 % 1009,2 hPa 0,0 mm 0,3 km/h (0 Bft) O 90 11,6 C 0,0 km/h (0 Bft)
03.05.2015 10:40 13,6 C 14,2 C 88 % 1009,2 hPa 0,0 mm 0,0 km/h (0 Bft) O-NO 67 11,6 C 0,0 km/h (0 Bft)
03.05.2015 10:45 13,7 C 14,4 C 88 % 1009,2 hPa 0,0 mm 0,0 km/h (0 Bft) W 270 11,7 C 0,0 km/h (0 Bft)
03.05.2015 10:50 13,7 C 14,4 C 88 % 1009,2 hPa 0,0 mm 0,5 km/h (0 Bft) SW 225 11,7 C 0,0 km/h (0 Bft)
03.05.2015 10:55 13,8 C 14,6 C 87 % 1009,2 hPa 0,0 mm 1,0 km/h (0 Bft) W-NW 292 11,7 C 0,0 km/h (0 Bft)
03.05.2015 11:00 13,8 C 14,6 C 87 % 1009,3 hPa 0,0 mm 2,6 km/h (1 Bft) NW 315 11,7 C 7,8 km/h (2 Bft)
03.05.2015 11:05 13,9 C 14,6 C 87 % 1009,3 hPa 0,0 mm 3,4 km/h (1 Bft) W 270 11,8 C 6,7 km/h (2 Bft)
03.05.2015 11:10 13,9 C 14,6 C 87 % 1009,3 hPa 0,0 mm 3,1 km/h (1 Bft) W 270 11,8 C 3,1 km/h (1 Bft)
03.05.2015 11:15 14,1 C 14,7 C 86 % 1009,3 hPa 0,0 mm 3,1 km/h (1 Bft) W-SW 247 11,8 C 4,9 km/h (1 Bft)
03.05.2015 11:20 14,0 C 14,8 C 86 % 1009,4 hPa 0,0 mm 2,6 km/h (1 Bft) SW 225 11,7 C 2,6 km/h (1 Bft)
03.05.2015 11:25 14,0 C 14,7 C 86 % 1009,4 hPa 0,0 mm 0,8 km/h (0 Bft) S-SO 157 11,7 C 0,0 km/h (0 Bft)
03.05.2015 11:30 13,9 C 14,5 C 86 % 1009,4 hPa 0,0 mm 0,8 km/h (0 Bft) NW 315 11,6 C 0,0 km/h (0 Bft)
03.05.2015 11:35 14,1 C 14,6 C 86 % 1009,4 hPa 0,0 mm 0,5 km/h (0 Bft) SW 225 11,8 C 0,0 km/h (0 Bft)
03.05.2015 11:40 14,2 C 14,7 C 86 % 1009,4 hPa 0,0 mm 1,0 km/h (0 Bft) S-SO 157 11,9 C 4,4 km/h (1 Bft)
03.05.2015 11:45 14,3 C 14,6 C 86 % 1009,4 hPa 0,0 mm 2,6 km/h (1 Bft) W-SW 247 12,0 C 4,7 km/h (1 Bft)
03.05.2015 11:50 14,2 C 14,7 C 86 % 1009,4 hPa 0,0 mm 2,3 km/h (1 Bft) W 270 11,9 C 0,0 km/h (0 Bft)
03.05.2015 11:55 14,4 C 14,9 C 86 % 1009,4 hPa 0,0 mm 2,8 km/h (1 Bft) W-NW 292 12,1 C 5,4 km/h (1 Bft)
03.05.2015 12:00 14,3 C 14,8 C 85 % 1009,2 hPa 0,0 mm 3,1 km/h (1 Bft) NW 315 11,8 C 0,0 km/h (0 Bft)
03.05.2015 12:05 14,4 C 15,0 C 85 % 1009,2 hPa 0,0 mm 2,6 km/h (1 Bft) N 360 11,9 C 4,9 km/h (1 Bft)
03.05.2015 12:10 14,4 C 14,9 C 85 % 1009,2 hPa 0,0 mm 2,3 km/h (1 Bft) SW 225 11,9 C 3,4 km/h (1 Bft)
03.05.2015 12:15 14,5 C 15,0 C 85 % 1009,2 hPa 0,0 mm 2,8 km/h (1 Bft) W-NW 292 12,0 C 10,4 km/h (2 Bft)
03.05.2015 12:20 14,5 C 15,4 C 85 % 1009,4 hPa 0,0 mm 2,8 km/h (1 Bft) N-NW 337 12,0 C 3,6 km/h (1 Bft)
03.05.2015 12:25 14,5 C 16,2 C 85 % 1009,4 hPa 0,0 mm 2,8 km/h (1 Bft) NW 315 12,0 C 6,2 km/h (2 Bft)
03.05.2015 12:30 15,3 C 16,3 C 85 % 1009,4 hPa 0,0 mm 2,3 km/h (1 Bft) N 360 12,8 C 0,0 km/h (0 Bft)
03.05.2015 12:35 15,3 C 16,6 C 85 % 1009,4 hPa 0,0 mm 2,1 km/h (1 Bft) SW 225 12,8 C 7,8 km/h (2 Bft)
03.05.2015 12:40 15,4 C 16,8 C 84 % 1009,3 hPa 0,0 mm 2,6 km/h (1 Bft) W-NW 292 12,7 C 4,7 km/h (1 Bft)
03.05.2015 12:45 15,6 C 17,5 C 84 % 1009,3 hPa 0,0 mm 3,4 km/h (1 Bft) O-SO 112 12,9 C 4,1 km/h (1 Bft)
03.05.2015 12:50 15,7 C 17,7 C 84 % 1009,3 hPa 0,0 mm 3,4 km/h (1 Bft) NW 315 13,0 C 7,8 km/h (2 Bft)
03.05.2015 12:55 15,8 C 17,5 C 83 % 1009,3 hPa 0,0 mm 4,1 km/h (1 Bft) N-NW 337 12,9 C 9,3 km/h (2 Bft)
03.05.2015 13:00 16,3 C 18,7 C 82 % 1009,5 hPa 0,0 mm 5,7 km/h (1 Bft) W-NW 292 13,2 C 9,3 km/h (2 Bft)
03.05.2015 13:05 16,3 C 19,9 C 82 % 1009,5 hPa 0,0 mm 3,9 km/h (1 Bft) S-SW 202 13,2 C 5,2 km/h (1 Bft)
03.05.2015 13:10 16,2 C 20,1 C 81 % 1009,5 hPa 0,0 mm 2,6 km/h (1 Bft) W 270 12,9 C 5,2 km/h (1 Bft)
03.05.2015 13:15 16,1 C 19,8 C 80 % 1009,5 hPa 0,0 mm 2,6 km/h (1 Bft) W 270 12,6 C 4,9 km/h (1 Bft)
03.05.2015 13:20 16,0 C 18,6 C 80 % 1009,8 hPa 0,0 mm 3,6 km/h (1 Bft) W-NW 292 12,5 C 4,7 km/h (1 Bft)
03.05.2015 13:25 16,3 C 18,4 C 80 % 1009,8 hPa 0,0 mm 2,3 km/h (1 Bft) NW 315 12,8 C 0,0 km/h (0 Bft)
03.05.2015 13:30 16,5 C 19,4 C 80 % 1009,8 hPa 0,0 mm 2,1 km/h (1 Bft) SW 225 13,0 C 0,0 km/h (0 Bft)
03.05.2015 13:35 16,5 C 20,0 C 80 % 1009,8 hPa 0,0 mm 3,1 km/h (1 Bft) N-NW 337 13,0 C 8,8 km/h (2 Bft)
03.05.2015 13:40 16,5 C 19,3 C 80 % 1009,9 hPa 0,0 mm 4,4 km/h (1 Bft) W-SW 247 13,0 C 6,5 km/h (2 Bft)
03.05.2015 13:45 16,4 C 19,0 C 80 % 1009,9 hPa 0,0 mm 5,7 km/h (1 Bft) N 360 12,9 C 13,7 km/h (3 Bft)
03.05.2015 13:50 16,3 C 18,7 C 79 % 1009,9 hPa 0,0 mm 7,5 km/h (2 Bft) NW 315 12,6 C 14,5 km/h (3 Bft)
03.05.2015 13:55 16,4 C 18,4 C 79 % 1009,9 hPa 0,0 mm 8,3 km/h (2 Bft) N-NW 337 12,7 C 17,1 km/h (3 Bft)
03.05.2015 14:00 16,4 C 18,9 C 79 % 1009,9 hPa 0,0 mm 6,2 km/h (2 Bft) W-NW 292 12,7 C 6,5 km/h (2 Bft)
03.05.2015 14:05 16,3 C 18,9 C 79 % 1009,9 hPa 0,0 mm 4,9 km/h (1 Bft) W-NW 292 12,6 C 9,3 km/h (2 Bft)
03.05.2015 14:10 16,3 C 18,6 C 79 % 1009,9 hPa 0,0 mm 4,9 km/h (1 Bft) NW 315 12,6 C 4,1 km/h (1 Bft)
03.05.2015 14:15 16,4 C 18,5 C 79 % 1009,9 hPa 0,0 mm 3,4 km/h (1 Bft) NW 315 12,7 C 0,0 km/h (0 Bft)
03.05.2015 14:20 16,5 C 18,6 C 79 % 1010,1 hPa 0,0 mm 4,1 km/h (1 Bft) O 90 12,8 C 5,7 km/h (1 Bft)
03.05.2015 14:25 16,6 C 18,8 C 79 % 1010,1 hPa 0,0 mm 6,0 km/h (2 Bft) W-NW 292 12,9 C 8,0 km/h (2 Bft)
03.05.2015 14:30 16,7 C 19,1 C 79 % 1010,1 hPa 0,0 mm 4,7 km/h (1 Bft) NW 315 13,0 C 8,3 km/h (2 Bft)
03.05.2015 14:35 16,9 C 19,3 C 79 % 1010,1 hPa 0,0 mm 3,6 km/h (1 Bft) W-NW 292 13,2 C 0,0 km/h (0 Bft)
03.05.2015 14:40 17,1 C 20,1 C 79 % 1010,1 hPa 0,0 mm 2,1 km/h (1 Bft) NW 315 13,4 C 3,6 km/h (1 Bft)
03.05.2015 14:45 17,0 C 19,9 C 78 % 1010,1 hPa 0,0 mm 1,0 km/h (0 Bft) N-NW 337 13,1 C 0,0 km/h (0 Bft)
03.05.2015 14:50 16,9 C 19,5 C 79 % 1010,1 hPa 0,0 mm 1,0 km/h (0 Bft) N-NW 337 13,2 C 2,8 km/h (1 Bft)
03.05.2015 14:55 16,8 C 19,2 C 79 % 1010,1 hPa 0,0 mm 1,6 km/h (1 Bft) W-NW 292 13,1 C 4,1 km/h (1 Bft)
03.05.2015 15:00 16,8 C 18,9 C 79 % 1010,1 hPa 0,0 mm 2,6 km/h (1 Bft) NW 315 13,1 C 4,4 km/h (1 Bft)
03.05.2015 15:05 16,9 C 18,8 C 79 % 1010,1 hPa 0,0 mm 4,1 km/h (1 Bft) W 270 13,2 C 11,4 km/h (2 Bft)
03.05.2015 15:10 16,9 C 18,7 C 79 % 1010,1 hPa 0,0 mm 5,2 km/h (1 Bft) W 270 13,2 C 3,9 km/h (1 Bft)
03.05.2015 15:15 17,2 C 18,5 C 79 % 1010,1 hPa 0,0 mm 4,4 km/h (1 Bft) W-SW 247 13,5 C 4,4 km/h (1 Bft)
03.05.2015 15:20 17,5 C 18,9 C 79 % 1010,2 hPa 0,0 mm 2,1 km/h (1 Bft) O 90 13,8 C 2,6 km/h (1 Bft)
03.05.2015 15:25 17,6 C 19,6 C 78 % 1010,2 hPa 0,0 mm 2,1 km/h (1 Bft) SW 225 13,7 C 9,3 km/h (2 Bft)
03.05.2015 15:30 17,6 C 19,8 C 78 % 1010,2 hPa 0,0 mm 2,3 km/h (1 Bft) NW 315 13,7 C 3,1 km/h (1 Bft)
03.05.2015 15:35 17,9 C 20,0 C 78 % 1010,2 hPa 0,0 mm 3,6 km/h (1 Bft) NW 315 14,0 C 7,0 km/h (2 Bft)
03.05.2015 15:36 18,1 C 20,5 C 78 % 1010,3 hPa 0,0 mm 4,1 km/h (1 Bft) NW 315 14,2 C 10,4 km/h (2 Bft)
03.05.2015 15:41 18,1 C 20,7 C 77 % 1010,3 hPa 0,0 mm 4,7 km/h (1 Bft) W-SW 247 14,0 C 6,2 km/h (2 Bft)
03.05.2015 15:46 18,0 C 20,5 C 77 % 1010,3 hPa 0,0 mm 5,7 km/h (1 Bft) S-SW 202 13,9 C 8,5 km/h (2 Bft)
03.05.2015 15:51 17,7 C 20,2 C 76 % 1010,3 hPa 0,0 mm 4,9 km/h (1 Bft) W-SW 247 13,4 C 8,0 km/h (2 Bft)
03.05.2015 15:56 17,6 C 19,5 C 76 % 1010,4 hPa 0,0 mm 5,4 km/h (1 Bft) NW 315 13,3 C 10,6 km/h (2 Bft)
03.05.2015 16:01 17,3 C 18,4 C 76 % 1010,4 hPa 0,0 mm 6,7 km/h (2 Bft) W 270 13,0 C 9,1 km/h (2 Bft)
03.05.2015 16:06 17,0 C 17,5 C 77 % 1010,4 hPa 0,0 mm 7,8 km/h (2 Bft) NW 315 12,9 C 11,1 km/h (2 Bft)
03.05.2015 16:11 16,3 C 16,6 C 77 % 1010,4 hPa 0,0 mm 9,1 km/h (2 Bft) W 270 12,3 C 9,8 km/h (2 Bft)
03.05.2015 16:16 16,1 C 16,0 C 77 % 1010,4 hPa 0,0 mm 9,3 km/h (2 Bft) NW 315 12,1 C 3,4 km/h (1 Bft)
03.05.2015 16:21 16,1 C 16,2 C 78 % 1010,4 hPa 0,0 mm 4,9 km/h (1 Bft) W-NW 292 12,3 C 8,3 km/h (2 Bft)
03.05.2015 16:26 16,1 C 16,3 C 78 % 1010,4 hPa 0,0 mm 2,6 km/h (1 Bft) W 270 12,3 C 4,4 km/h (1 Bft)
03.05.2015 16:31 16,1 C 16,3 C 78 % 1010,4 hPa 0,0 mm 2,6 km/h (1 Bft) NW 315 12,3 C 3,1 km/h (1 Bft)
03.05.2015 16:36 16,1 C 16,4 C 78 % 1010,2 hPa 0,0 mm 2,1 km/h (1 Bft) W-SW 247 12,3 C 0,0 km/h (0 Bft)
03.05.2015 16:41 16,2 C 16,3 C 78 % 1010,2 hPa 0,0 mm 1,6 km/h (1 Bft) W-SW 247 12,4 C 0,0 km/h (0 Bft)
03.05.2015 16:46 16,2 C 16,1 C 78 % 1010,2 hPa 0,0 mm 1,3 km/h (1 Bft) W-SW 247 12,4 C 0,0 km/h (0 Bft)
03.05.2015 16:51 15,8 C 15,7 C 79 % 1010,2 hPa 0,0 mm 1,3 km/h (1 Bft) S 180 12,2 C 0,0 km/h (0 Bft)
03.05.2015 16:56 15,7 C 15,7 C 79 % 1009,9 hPa 0,0 mm 0,5 km/h (0 Bft) S-SO 157 12,1 C 0,0 km/h (0 Bft)
03.05.2015 17:01 15,6 C 15,7 C 80 % 1009,9 hPa 0,0 mm 0,0 km/h (0 Bft) SW 225 12,2 C 0,0 km/h (0 Bft)
03.05.2015 17:06 15,5 C 15,4 C 80 % 1009,9 hPa 0,0 mm 0,0 km/h (0 Bft) SO 135 12,1 C 3,4 km/h (1 Bft)
03.05.2015 17:11 15,2 C 15,1 C 81 % 1009,9 hPa 0,7 mm 0,3 km/h (0 Bft) SO 135 12,0 C 0,0 km/h (0 Bft)
03.05.2015 17:16 15,0 C 15,0 C 81 % 1010,0 hPa 0,0 mm 0,3 km/h (0 Bft) S-SO 157 11,8 C 0,0 km/h (0 Bft)
03.05.2015 17:21 14,8 C 14,8 C 82 % 1010,0 hPa 0,0 mm 0,0 km/h (0 Bft) SO 135 11,8 C 0,0 km/h (0 Bft)
03.05.2015 17:26 14,7 C 14,7 C 82 % 1010,0 hPa 0,0 mm 0,0 km/h (0 Bft) O-NO 67 11,7 C 0,0 km/h (0 Bft)
03.05.2015 17:31 14,7 C 14,8 C 82 % 1010,0 hPa 0,0 mm 0,0 km/h (0 Bft) NW 315 11,7 C 0,0 km/h (0 Bft)
03.05.2015 17:36 14,7 C 14,7 C 82 % 1009,8 hPa 0,0 mm 0,0 km/h (0 Bft) S 180 11,7 C 0,0 km/h (0 Bft)
03.05.2015 17:41 14,6 C 14,6 C 83 % 1009,8 hPa 0,0 mm 0,3 km/h (0 Bft) S 180 11,7 C 3,1 km/h (1 Bft)
03.05.2015 17:46 14,5 C 14,5 C 83 % 1009,8 hPa 0,0 mm 0,5 km/h (0 Bft) S 180 11,6 C 3,4 km/h (1 Bft)
03.05.2015 17:51 14,5 C 14,4 C 83 % 1009,8 hPa 0,0 mm 1,3 km/h (1 Bft) S-SO 157 11,6 C 0,0 km/h (0 Bft)
03.05.2015 17:56 14,5 C 14,4 C 83 % 1009,7 hPa 0,0 mm 1,3 km/h (1 Bft) S 180 11,6 C 0,0 km/h (0 Bft)
03.05.2015 18:01 14,5 C 14,5 C 84 % 1009,7 hPa 0,0 mm 0,5 km/h (0 Bft) SO 135 11,8 C 0,0 km/h (0 Bft)
03.05.2015 18:06 14,4 C 14,4 C 84 % 1009,7 hPa 0,0 mm 0,3 km/h (0 Bft) SO 135 11,7 C 4,1 km/h (1 Bft)
03.05.2015 18:11 14,2 C 14,2 C 84 % 1009,7 hPa 0,0 mm 0,5 km/h (0 Bft) SO 135 11,5 C 0,0 km/h (0 Bft)
03.05.2015 18:16 14,1 C 14,2 C 84 % 1009,9 hPa 0,0 mm 0,5 km/h (0 Bft) O 90 11,4 C 0,0 km/h (0 Bft)
03.05.2015 18:21 14,2 C 14,2 C 84 % 1009,9 hPa 0,0 mm 0,0 km/h (0 Bft) SO 135 11,5 C 0,0 km/h (0 Bft)
03.05.2015 18:26 14,2 C 14,2 C 84 % 1009,9 hPa 0,0 mm 0,0 km/h (0 Bft) SO 135 11,5 C 0,0 km/h (0 Bft)
03.05.2015 18:31 14,2 C 14,2 C 84 % 1009,9 hPa 0,0 mm 0,0 km/h (0 Bft) O-NO 67 11,5 C 0,0 km/h (0 Bft)
03.05.2015 18:36 14,3 C 14,3 C 85 % 1009,3 hPa 0,0 mm 0,0 km/h (0 Bft) N-NO 22 11,8 C 0,0 km/h (0 Bft)
03.05.2015 18:41 14,4 C 14,4 C 85 % 1009,3 hPa 0,0 mm 0,0 km/h (0 Bft) O-SO 112 11,9 C 0,0 km/h (0 Bft)
03.05.2015 18:46 14,3 C 14,4 C 85 % 1009,3 hPa 0,0 mm 0,0 km/h (0 Bft) NO 45 11,8 C 0,0 km/h (0 Bft)
03.05.2015 18:51 14,2 C 14,4 C 85 % 1009,3 hPa 0,0 mm 0,0 km/h (0 Bft) O-SO 112 11,7 C 0,0 km/h (0 Bft)
03.05.2015 18:56 14,3 C 14,4 C 85 % 1009,1 hPa 0,0 mm 0,3 km/h (0 Bft) SO 135 11,8 C 3,4 km/h (1 Bft)
03.05.2015 19:01 14,3 C 14,3 C 85 % 1009,1 hPa 0,0 mm 0,5 km/h (0 Bft) O-SO 112 11,8 C 2,6 km/h (1 Bft)
03.05.2015 19:06 14,3 C 14,4 C 85 % 1009,1 hPa 0,0 mm 0,3 km/h (0 Bft) N-NO 22 11,8 C 0,0 km/h (0 Bft)
03.05.2015 19:11 14,3 C 14,5 C 85 % 1009,1 hPa 0,0 mm 0,0 km/h (0 Bft) N-NW 337 11,8 C 0,0 km/h (0 Bft)
03.05.2015 19:16 14,3 C 14,4 C 85 % 1008,8 hPa 0,0 mm 0,0 km/h (0 Bft) O-SO 112 11,8 C 0,0 km/h (0 Bft)
03.05.2015 19:21 14,3 C 14,3 C 85 % 1008,8 hPa 0,0 mm 0,5 km/h (0 Bft) W 270 11,8 C 5,2 km/h (1 Bft)
03.05.2015 19:26 14,2 C 14,2 C 85 % 1008,8 hPa 0,0 mm 1,0 km/h (0 Bft) O-SO 112 11,7 C 0,0 km/h (0 Bft)
03.05.2015 19:31 14,1 C 14,1 C 86 % 1008,8 hPa 0,0 mm 1,0 km/h (0 Bft) O-NO 67 11,8 C 0,0 km/h (0 Bft)
03.05.2015 19:36 14,0 C 13,9 C 86 % 1008,9 hPa 0,0 mm 0,0 km/h (0 Bft) O-NO 67 11,7 C 0,0 km/h (0 Bft)
03.05.2015 19:41 13,9 C 13,8 C 86 % 1008,9 hPa 0,0 mm 0,5 km/h (0 Bft) SO 135 11,6 C 0,0 km/h (0 Bft)
03.05.2015 19:46 13,9 C 13,8 C 85 % 1008,9 hPa 0,0 mm 1,0 km/h (0 Bft) SW 225 11,4 C 0,0 km/h (0 Bft)
03.05.2015 19:51 14,0 C 13,9 C 84 % 1008,9 hPa 0,0 mm 1,6 km/h (1 Bft) S-SO 157 11,3 C 0,0 km/h (0 Bft)
03.05.2015 19:56 13,9 C 14,0 C 84 % 1008,9 hPa 0,0 mm 1,8 km/h (1 Bft) W-SW 247 11,2 C 5,2 km/h (1 Bft)
03.05.2015 20:01 13,9 C 14,0 C 83 % 1008,9 hPa 0,0 mm 1,3 km/h (1 Bft) S 180 11,1 C 0,0 km/h (0 Bft)
03.05.2015 20:06 13,8 C 13,9 C 83 % 1008,9 hPa 0,0 mm 1,6 km/h (1 Bft) S 180 11,0 C 13,5 km/h (3 Bft)
03.05.2015 20:11 14,0 C 14,1 C 82 % 1008,9 hPa 0,0 mm 1,6 km/h (1 Bft) S 180 11,0 C 0,0 km/h (0 Bft)
03.05.2015 20:16 13,9 C 14,0 C 81 % 1008,9 hPa 0,0 mm 1,8 km/h (1 Bft) W-SW 247 10,7 C 5,7 km/h (1 Bft)
03.05.2015 20:21 13,9 C 14,0 C 80 % 1008,9 hPa 0,0 mm 1,6 km/h (1 Bft) W-SW 247 10,5 C 6,2 km/h (2 Bft)
03.05.2015 20:26 13,8 C 14,0 C 80 % 1008,9 hPa 0,0 mm 1,6 km/h (1 Bft) S 180 10,4 C 0,0 km/h (0 Bft)
03.05.2015 20:31 13,9 C 13,9 C 80 % 1008,9 hPa 0,0 mm 0,8 km/h (0 Bft) S 180 10,5 C 11,4 km/h (2 Bft)
03.05.2015 20:36 13,9 C 13,9 C 79 % 1009,0 hPa 0,0 mm 1,0 km/h (0 Bft) S 180 10,3 C 0,0 km/h (0 Bft)
03.05.2015 20:41 13,9 C 14,0 C 79 % 1009,0 hPa 0,0 mm 1,3 km/h (1 Bft) W-SW 247 10,3 C 0,0 km/h (0 Bft)
03.05.2015 20:46 13,6 C 13,9 C 79 % 1009,0 hPa 0,0 mm 0,8 km/h (0 Bft) S-SO 157 10,0 C 0,0 km/h (0 Bft)
03.05.2015 20:51 13,4 C 13,9 C 79 % 1009,0 hPa 0,0 mm 0,3 km/h (0 Bft) N-NO 22 9,8 C 0,0 km/h (0 Bft)
03.05.2015 20:56 13,2 C 13,6 C 80 % 1009,4 hPa 0,0 mm 0,3 km/h (0 Bft) NO 45 9,8 C 0,0 km/h (0 Bft)
03.05.2015 21:01 12,9 C 13,2 C 83 % 1009,4 hPa 0,0 mm 0,0 km/h (0 Bft) O-NO 67 10,1 C 0,0 km/h (0 Bft)
03.05.2015 21:06 12,9 C 13,0 C 83 % 1009,4 hPa 0,0 mm 0,0 km/h (0 Bft) O-SO 112 10,1 C 0,0 km/h (0 Bft)
03.05.2015 21:11 12,8 C 12,8 C 84 % 1009,4 hPa 0,0 mm 0,8 km/h (0 Bft) S-SO 157 10,2 C 0,0 km/h (0 Bft)
03.05.2015 21:16 12,9 C 12,8 C 84 % 1009,9 hPa 0,0 mm 2,1 km/h (1 Bft) SW 225 10,3 C 3,1 km/h (1 Bft)
03.05.2015 21:21 13,1 C 13,1 C 82 % 1009,9 hPa 0,0 mm 1,6 km/h (1 Bft) S 180 10,1 C 2,8 km/h (1 Bft)
03.05.2015 21:26 13,4 C 13,5 C 81 % 1009,9 hPa 0,0 mm 2,3 km/h (1 Bft) S-SW 202 10,2 C 6,2 km/h (2 Bft)
03.05.2015 21:31 14,3 C 14,2 C 78 % 1009,9 hPa 0,0 mm 4,4 km/h (1 Bft) S-SW 202 10,5 C 7,5 km/h (2 Bft)
03.05.2015 21:36 14,3 C 14,4 C 77 % 1009,9 hPa 0,0 mm 5,2 km/h (1 Bft) SW 225 10,3 C 4,9 km/h (1 Bft)
03.05.2015 21:41 14,5 C 14,6 C 76 % 1009,9 hPa 0,0 mm 4,4 km/h (1 Bft) W-SW 247 10,3 C 4,4 km/h (1 Bft)
03.05.2015 21:46 14,5 C 14,7 C 75 % 1009,9 hPa 0,0 mm 4,4 km/h (1 Bft) S-SW 202 10,1 C 0,0 km/h (0 Bft)
03.05.2015 21:51 14,5 C 14,8 C 74 % 1009,9 hPa 0,0 mm 5,2 km/h (1 Bft) W-SW 247 9,9 C 2,8 km/h (1 Bft)
03.05.2015 21:56 14,6 C 14,9 C 74 % 1010,2 hPa 0,0 mm 3,6 km/h (1 Bft) SW 225 10,0 C 4,7 km/h (1 Bft)
03.05.2015 22:01 14,5 C 14,9 C 73 % 1010,2 hPa 0,0 mm 2,6 km/h (1 Bft) S-SW 202 9,7 C 3,9 km/h (1 Bft)
03.05.2015 22:06 14,2 C 14,8 C 74 % 1010,2 hPa 0,0 mm 1,6 km/h (1 Bft) S 180 9,6 C 0,0 km/h (0 Bft)
03.05.2015 22:11 13,7 C 14,5 C 76 % 1010,2 hPa 0,0 mm 1,3 km/h (1 Bft) SO 135 9,5 C 0,0 km/h (0 Bft)
03.05.2015 22:16 13,5 C 14,1 C 77 % 1010,6 hPa 0,0 mm 0,5 km/h (0 Bft) S 180 9,5 C 4,4 km/h (1 Bft)
03.05.2015 22:21 13,3 C 13,9 C 78 % 1010,6 hPa 0,0 mm 1,3 km/h (1 Bft) S-SO 157 9,5 C 2,6 km/h (1 Bft)
03.05.2015 22:26 13,3 C 13,8 C 79 % 1010,6 hPa 0,0 mm 1,3 km/h (1 Bft) S-SO 157 9,7 C 0,0 km/h (0 Bft)
03.05.2015 22:31 13,2 C 13,7 C 79 % 1010,6 hPa 0,0 mm 0,8 km/h (0 Bft) SO 135 9,6 C 0,0 km/h (0 Bft)
03.05.2015 22:36 13,1 C 13,5 C 79 % 1010,6 hPa 0,0 mm 0,0 km/h (0 Bft) O-SO 112 9,5 C 0,0 km/h (0 Bft)
03.05.2015 22:41 13,3 C 13,4 C 79 % 1010,6 hPa 0,0 mm 0,5 km/h (0 Bft) W-NW 292 9,7 C 0,0 km/h (0 Bft)
03.05.2015 22:46 13,3 C 13,3 C 79 % 1010,6 hPa 0,0 mm 0,5 km/h (0 Bft) O-SO 112 9,7 C 0,0 km/h (0 Bft)
03.05.2015 22:51 13,1 C 13,1 C 81 % 1010,6 hPa 0,0 mm 0,5 km/h (0 Bft) SO 135 9,9 C 3,1 km/h (1 Bft)
03.05.2015 22:56 13,1 C 12,9 C 81 % 1010,6 hPa 0,0 mm 1,8 km/h (1 Bft) S-SW 202 9,9 C 9,3 km/h (2 Bft)
03.05.2015 23:01 13,2 C 13,0 C 81 % 1010,6 hPa 0,0 mm 2,8 km/h (1 Bft) S-SO 157 10,0 C 0,0 km/h (0 Bft)
03.05.2015 23:06 13,1 C 12,9 C 80 % 1010,6 hPa 0,0 mm 2,1 km/h (1 Bft) O-NO 67 9,7 C 0,0 km/h (0 Bft)
03.05.2015 23:11 12,7 C 12,6 C 82 % 1010,6 hPa 0,0 mm 0,3 km/h (0 Bft) O-NO 67 9,7 C 0,0 km/h (0 Bft)
03.05.2015 23:16 12,6 C 12,4 C 83 % 1010,9 hPa 0,0 mm 1,6 km/h (1 Bft) SO 135 9,8 C 2,6 km/h (1 Bft)
03.05.2015 23:21 12,6 C 12,4 C 85 % 1010,9 hPa 0,0 mm 3,1 km/h (1 Bft) N-NO 22 10,1 C 3,1 km/h (1 Bft)
03.05.2015 23:26 12,6 C 12,4 C 85 % 1010,9 hPa 0,0 mm 2,8 km/h (1 Bft) S 180 10,1 C 5,4 km/h (1 Bft)
03.05.2015 23:31 12,8 C 12,6 C 85 % 1010,9 hPa 0,0 mm 3,4 km/h (1 Bft) S-SO 157 10,3 C 5,7 km/h (1 Bft)
03.05.2015 23:36 12,7 C 12,6 C 85 % 1010,5 hPa 0,0 mm 3,1 km/h (1 Bft) O-NO 67 10,2 C 0,0 km/h (0 Bft)
03.05.2015 23:41 12,5 C 12,4 C 85 % 1010,5 hPa 0,0 mm 0,3 km/h (0 Bft) S-SO 157 10,0 C 0,0 km/h (0 Bft)
03.05.2015 23:46 12,5 C 12,4 C 85 % 1010,5 hPa 0,0 mm 0,0 km/h (0 Bft) S-SO 157 10,0 C 0,0 km/h (0 Bft)
03.05.2015 23:51 12,4 C 12,3 C 85 % 1010,5 hPa 0,0 mm 0,3 km/h (0 Bft) O-SO 112 9,9 C 0,0 km/h (0 Bft)
03.05.2015 23:56 12,3 C 12,2 C 85 % 1010,4 hPa 0,0 mm 0,3 km/h (0 Bft) N-NO 22 9,9 C 0,0 km/h (0 Bft)
_ Min-Zeit 03:10 02:55 22:01 06:15 - 23:46 - - 03:10 23:56
Minimum _ 8,8 C 8,7 C 73 % 1007,8 hPa - 0,0 km/h (0 Bft) - - 6,9 C 0,0 km/h (0 Bft)
_ Max-Zeit 15:41 15:41 07:35 01:15 17:11 16:16 - - 15:36 13:55
Maximum _ 18,1 C 20,7 C 92 % 1011,4 hPa 0,7 mm 9,3 km/h
NW (2 Bft)
- - 14,2 C 17,1 km/h
N-NW (3 Bft)
Durchschnitt _ 12,4 C 12,9 C 86 % 1009,6 hPa #13,1 mm 1,6 km/h (1 Bft) NW - 10,0 C 2,4 km/h (1 Bft)